This demonstration page uses our WeatherBlox Daily Observations layout. Learn more.

Left ArrowRight Arrow

Hourly Observations for October 21, 2015

Temp ( °F °C ) Dew Point ( °F °C ) Humidity (%) Winds ( mph kmh ) Pressure ( in mb ) Visibility ( mi km ) Precip ( " mm )
12:15 am 00:15 Clear 59 14.9 53 11.4 80 80 Calm 29.94 1014 10 16 N/A
12:35 am 00:35 Clear 56 13.5 52 10.9 84 84 W 5 7 29.94 1014 10 16 N/A
12:55 am 00:55 Clear 57 13.9 53 11.5 86 86 NNW 9 15 29.94 1014 10 16 N/A
1:15 am 01:15 Clear 59 15.2 53 11.6 79 79 NNW 7 11 29.97 1015 10 16 N/A
1:35 am 01:35 Partly Cloudy 63 17.4 55 12.5 73 73 N 13 20 29.94 1014 10 16 N/A
1:55 am 01:55 Mostly Cloudy 64 17.7 53 11.6 68 68 NNE 16 26 29.94 1014 10 16 N/A
2:15 am 02:15 Partly Cloudy 64 17.5 52 11 66 66 NNE 14 22 29.94 1014 10 16 N/A
2:35 am 02:35 Partly Cloudy 63 17.3 50 10.1 63 63 NNE 15 24 29.97 1015 10 16 N/A
2:55 am 02:55 Clear 63 17 49 9.5 62 62 NNE 15 24 29.97 1015 10 16 N/A
3:15 am 03:15 Partly Cloudy 63 17 48 9.1 60 60 NW 15 24 30.03 1017 10 16 N/A
3:35 am 03:35 Mostly Cloudy 63 17 49 9.2 60 60 N 14 22 30.03 1017 10 16 N/A
3:55 am 03:55 Partly Cloudy 61 16.3 48 9 62 62 N 13 20 30.03 1017 10 16 N/A
4:15 am 04:15 Partly Cloudy 61 16 48 9 63 63 N 13 20 30.03 1017 10 16 N/A
4:35 am 04:35 Clear 60 15.6 48 9.1 65 65 NNE 13 20 30.03 1017 10 16 N/A
4:55 am 04:55 Clear 59 15.1 48 9 67 67 NNE 17 28 30.03 1017 10 16 N/A
5:15 am 05:15 Clear 58 14.7 48 9 69 69 NNE 10 17 30.03 1017 10 16 N/A
5:35 am 05:35 Clear 58 14.4 48 8.8 69 69 NNE 10 17 30.03 1017 10 16 N/A
5:55 am 05:55 Clear 56 13.6 48 9 74 74 N 6 9 30.09 1019 10 16 N/A
6:15 am 06:15 Clear 56 13.5 48 9.1 75 75 NNE 10 17 30.09 1019 10 16 N/A
6:35 am 06:35 Clear 56 13.1 48 9 76 76 NNE 10 17 30.09 1019 10 16 N/A
6:55 am 06:55 Clear 55 12.6 48 9 79 79 N 9 15 30.12 1020 10 16 N/A
7:15 am 07:15 Clear 55 12.5 48 8.7 78 78 N 12 19 30.12 1020 10 16 N/A
7:35 am 07:35 Clear 54 12 47 8.5 79 79 N 8 13 30.15 1021 10 16 N/A
7:55 am 07:55 Clear 54 12 47 8.5 79 79 N 10 17 30.15 1021 10 16 N/A
8:15 am 08:15 Sunny 54 12 47 8.5 79 79 N 9 15 30.15 1021 10 16 N/A
8:35 am 08:35 Sunny 54 12.3 48 8.7 79 79 N 9 15 30.18 1022 10 16 N/A
8:55 am 08:55 Partly Cloudy 55 12.6 48 8.7 77 77 N 10 17 30.18 1022 10 16 N/A
9:15 am 09:15 Mostly Cloudy 56 13.3 48 9.1 76 76 N 16 26 30.21 1023 10 16 N/A
9:35 am 09:35 Cloudy 56 13.5 48 9 74 74 NNE 18 30 30.21 1023 10 16 N/A
9:55 am 09:55 Cloudy 56 13.5 48 9 74 74 NNE 15 24 30.21 1023 10 16 N/A
10:15 am 10:15 Cloudy 56 13.1 48 8.8 75 75 N 13 20 30.21 1023 10 16 N/A
10:35 am 10:35 Cloudy 56 13.1 48 8.9 76 76 N 16 26 30.21 1023 10 16 N/A
10:55 am 10:55 Cloudy 56 13.3 48 9 75 75 N 15 24 30.21 1023 10 16 N/A
11:15 am 11:15 Cloudy 56 13.5 48 9.1 75 75 N 9 15 30.24 1024 10 16 N/A
11:35 am 11:35 Cloudy 56 13.5 47 8.5 72 72 N 15 24 30.21 1023 10 16 N/A
11:55 am 11:55 Cloudy 57 13.7 46 7.5 66 66 N 13 20 30.21 1023 10 16 N/A
12:15 pm 12:15 Mostly Cloudy 57 14 43 6 59 59 NNE 14 22 30.21 1023 10 16 N/A
12:35 pm 12:35 Cloudy 57 14 42 5.7 58 58 NNE 12 19 30.21 1023 10 16 N/A
12:55 pm 12:55 Cloudy 58 14.5 43 6.3 58 58 N 13 20 30.21 1023 10 16 N/A
1:15 pm 13:15 Mostly Cloudy 58 14.6 43 6.1 57 57 NNE 12 19 30.21 1023 10 16 N/A
1:35 pm 13:35 Mostly Cloudy 58 14.7 42 5.8 55 55 NNE 8 13 30.21 1023 10 16 N/A
1:55 pm 13:55 Cloudy 58 14.4 42 5.4 55 55 NNE 9 15 30.21 1023 10 16 N/A
2:15 pm 14:15 Cloudy 58 14.5 41 4.8 52 52 NNE 8 13 30.21 1023 10 16 N/A
2:35 pm 14:35 Cloudy 59 15 42 5.4 53 53 NNE 10 17 30.15 1021 10 16 N/A
2:55 pm 14:55 Mostly Cloudy 59 15.2 42 5.3 52 52 NNE 12 19 30.15 1021 10 16 N/A
3:15 pm 15:15 Cloudy with Light Rain 59 14.9 42 5.5 54 54 NNE 9 15 30.15 1021 10 16 N/A
3:35 pm 15:35 Cloudy with Drizzle 58 14.7 43 6 56 56 N 7 11 30.15 1021 10 16 N/A
3:55 pm 15:55 Cloudy 59 15 42 5.5 53 53 N 7 11 30.15 1021 10 16 N/A
4:15 pm 16:15 Mostly Cloudy with Light Rain 58 14.6 42 5.6 55 55 N 9 15 30.21 1023 10 16 N/A
4:35 pm 16:35 Cloudy with Light Rain 57 14.1 44 6.6 61 61 NNE 8 13 30.21 1023 10 16 N/A
4:55 pm 16:55 Cloudy with Drizzle 57 14 44 6.5 61 61 NNE 6 9 30.21 1023 10 16 N/A
5:15 pm 17:15 Cloudy with Drizzle 57 14.1 43 6.2 59 59 NNE 5 7 30.21 1023 10 16 N/A
5:35 pm 17:35 Cloudy 58 14.3 43 6.3 59 59 NE 3 6 30.21 1023 10 16 N/A
5:55 pm 17:55 Cloudy 58 14.2 42 5.8 57 57 NE 5 7 30.21 1023 10 16 N/A
6:15 pm 18:15 Cloudy 57 14.1 42 5.8 58 58 NE 5 7 30.21 1023 10 16 N/A
6:35 pm 18:35 Cloudy 57 14 43 6 59 59 ENE 3 6 30.21 1023 10 16 N/A
6:55 pm 18:55 Cloudy 56 13.5 45 7.2 66 66 ENE 5 7 30.21 1023 10 16 N/A
7:15 pm 19:15 Cloudy 56 13.6 44 6.5 62 62 NE 5 7 30.21 1023 10 16 N/A
7:35 pm 19:35 Cloudy 56 13.6 43 6 60 60 N 6 9 30.21 1023 10 16 N/A
7:55 pm 19:55 Cloudy 56 13.6 41 5 56 56 NNE 5 7 30.21 1023 10 16 N/A
8:15 pm 20:15 Cloudy 56 13.5 40 4.6 55 55 NNE 5 7 30.21 1023 10 16 N/A
8:35 pm 20:35 Cloudy 56 13.5 40 4.4 54 54 NNE 5 7 30.21 1023 10 16 N/A
8:55 pm 20:55 Cloudy 56 13.1 40 4.2 55 55 NNE 5 7 30.21 1023 10 16 N/A
9:15 pm 21:15 Cloudy 55 13 40 4.2 55 55 NE 5 7 30.21 1023 10 16 N/A
9:35 pm 21:35 Cloudy 55 12.8 40 4.3 57 57 NNE 6 9 30.21 1023 10 16 N/A
9:55 pm 21:55 Cloudy 55 12.8 40 4.4 57 57 NNE 5 7 30.21 1023 10 16 N/A
10:15 pm 22:15 Cloudy 55 12.8 40 4.7 58 58 NNE 5 7 30.21 1023 10 16 N/A
10:35 pm 22:35 Cloudy 55 12.5 40 4.7 59 59 NE 5 7 30.21 1023 10 16 N/A
10:55 pm 22:55 Cloudy 55 12.5 41 5 61 61 E 3 6 30.21 1023 10 16 N/A
11:15 pm 23:15 Cloudy 54 12.2 42 5.7 65 65 Calm 30.21 1023 10 16 N/A
11:35 pm 23:35 Cloudy 54 12.2 42 5.3 63 63 Calm 30.21 1023 10 16 N/A
11:55 pm 23:55 Cloudy 54 12.1 44 6.4 68 68 Calm 30.21 1023 10 16 N/A

Powered by AerisWeather